| time (UTC) | temp F | wind direction | speed MPH | gust MPH | rain 1hr in | rain 24hr in | rain mn in | humidity % | barometer mb |
| 20260508075313 | 53 | 240 | 0.0 | 3.0 | 0.00 | 0.03 | 0.00 | 100 | 1011.2 |
| 20260508074650 | 54 | 240 | 0.0 | 3.0 | 0.00 | 0.03 | 0.00 | 100 | 1011.1 |
| 20260508074130 | 54 | 240 | 0.0 | 3.0 | 0.00 | 0.03 | 0.00 | 100 | 1011.1 |
| 20260508073602 | 54 | 240 | 0.0 | 3.0 | 0.00 | 0.03 | 0.00 | 100 | 1011.1 |
| 20260508073038 | 54 | 240 | 0.0 | 3.0 | 0.00 | 0.03 | 0.00 | 100 | 1011.1 |
| 20260508072502 | 54 | 240 | 0.0 | 5.0 | 0.00 | 0.03 | 0.00 | 100 | 1011.0 |
| 20260508071919 | 54 | 240 | 0.0 | 5.0 | 0.00 | 0.03 | 0.00 | 100 | 1010.9 |
| 20260508071324 | 54 | 245 | 0.0 | 3.0 | 0.00 | 0.03 | 0.00 | 100 | 1010.8 |
| 20260508070733 | 54 | 245 | 0.0 | 3.0 | 0.00 | 0.03 | 0.00 | 100 | 1010.8 |
| 20260508070154 | 54 | 245 | 0.0 | 3.0 | 0.00 | 0.03 | 0.00 | 100 | 1010.7 |
| 20260508065655 | 55 | 245 | 0.0 | 2.0 | 0.00 | 0.03 | 0.00 | 100 | 1010.6 |
| 20260508065030 | 55 | 245 | 0.0 | 3.0 | 0.00 | 0.03 | 0.00 | 100 | 1010.6 |
| 20260508064719 | 55 | 245 | 0.0 | 1.0 | 0.00 | 0.03 | 0.00 | 100 | 1010.5 |
| 20260508064502 | 55 | 245 | 0.0 | 1.0 | 0.00 | 0.03 | 0.00 | 100 | 1010.5 |
| 20260508064144 | 55 | 245 | 0.0 | 3.0 | 0.00 | 0.03 | 0.00 | 100 | 1010.4 |
| 20260508063521 | 55 | 245 | 0.0 | 3.0 | 0.00 | 0.03 | 0.00 | 100 | 1010.2 |
| 20260508062752 | 55 | 245 | 0.0 | 3.0 | 0.00 | 0.03 | 0.00 | 100 | 1010.1 |
| 20260508062230 | 55 | 245 | 0.0 | 4.0 | 0.00 | 0.03 | 0.00 | 100 | 1010.1 |
| 20260508061644 | 55 | 245 | 0.0 | 4.0 | 0.00 | 0.03 | 0.00 | 100 | 1010.2 |
| 20260508061117 | 55 | 245 | 0.0 | 5.0 | 0.00 | 0.03 | 0.00 | 100 | 1010.2 |
| 20260508060954 | 55 | 245 | 0.0 | 5.0 | 0.00 | 0.04 | 0.00 | 100 | 1010.3 |
| 20260508055955 | 55 | 236 | 0.0 | 7.0 | 0.00 | 0.04 | 0.00 | 100 | 1010.2 |
| 20260508055417 | 55 | 236 | 0.0 | 7.0 | 0.00 | 0.04 | 0.00 | 100 | 1010.2 |
| 20260508055127 | 54 | 196 | 0.0 | 3.0 | 0.00 | 0.04 | 0.00 | 100 | 1010.3 |
| 20260508054614 | 54 | 196 | 0.0 | 3.0 | 0.00 | 0.04 | 0.00 | 100 | 1010.2 |
| 20260508053837 | 54 | 196 | 0.0 | 3.0 | 0.00 | 0.05 | 0.00 | 100 | 1010.2 |
| 20260508053130 | 54 | 196 | 0.0 | 3.0 | 0.00 | 0.05 | 0.00 | 100 | 1010.2 |
| 20260508052638 | 54 | 196 | 0.0 | 0.0 | 0.00 | 0.05 | 0.00 | 100 | 1010.2 |
| 20260508052611 | 54 | 196 | 0.0 | 0.0 | 0.00 | 0.05 | 0.00 | 100 | 1010.2 |
| 20260508051334 | 54 | 196 | 0.0 | 0.0 | 0.00 | 0.05 | 0.00 | 100 | 1010.2 |
| 20260508050802 | 54 | 196 | 0.0 | 0.0 | 0.00 | 0.05 | 0.00 | 100 | 1010.2 |
| 20260508050222 | 54 | 196 | 0.0 | 0.0 | 0.00 | 0.05 | 0.00 | 100 | 1010.3 |
| 20260508045638 | 54 | 196 | 0.0 | 0.0 | 0.00 | 0.05 | 0.00 | 100 | 1010.3 |
| 20260508045253 | 54 | 196 | 0.0 | 0.0 | 0.00 | 0.05 | 0.00 | 100 | 1010.3 |
| 20260508044533 | 54 | 196 | 0.0 | 0.0 | 0.00 | 0.05 | 0.00 | 100 | 1010.2 |
| 20260508044000 | 54 | 196 | 0.0 | 0.0 | 0.00 | 0.05 | 0.00 | 100 | 1010.2 |
| 20260508043335 | 54 | 196 | 0.0 | 0.0 | 0.00 | 0.05 | 0.00 | 100 | 1010.2 |
| 20260508042810 | 53 | 196 | 0.0 | 0.0 | 0.00 | 0.05 | 0.00 | 100 | 1010.1 |
| 20260508042234 | 53 | 196 | 0.0 | 0.0 | 0.00 | 0.05 | 0.00 | 100 | 1010.2 |
| 20260508041701 | 53 | 196 | 0.0 | 0.0 | 0.00 | 0.05 | 0.00 | 100 | 1010.1 |
| 20260508041112 | 53 | 196 | 0.0 | 0.0 | 0.00 | 0.05 | 0.00 | 100 | 1010.1 |
| 20260508040537 | 53 | 196 | 0.0 | 0.0 | 0.00 | 0.05 | 0.00 | 100 | 1010.0 |
| 20260508035954 | 52 | 196 | 0.0 | 0.0 | 0.00 | 0.05 | 0.05 | 100 | 1009.9 |
| 20260508035402 | 52 | 196 | 0.0 | 1.0 | 0.00 | 0.05 | 0.05 | 100 | 1009.9 |
| 20260508034834 | 51 | 196 | 0.0 | 0.0 | 0.00 | 0.05 | 0.05 | 100 | 1009.8 |
| 20260508034743 | 51 | 196 | 0.0 | 0.0 | 0.00 | 0.05 | 0.05 | 100 | 1009.8 |
| 20260508034532 | 51 | 196 | 0.0 | 0.0 | 0.00 | 0.05 | 0.05 | 100 | 1009.8 |
| 20260508033729 | 51 | 196 | 0.0 | 2.0 | 0.00 | 0.05 | 0.05 | 100 | 1009.7 |
| 20260508033250 | 51 | 196 | 0.0 | 2.0 | 0.00 | 0.05 | 0.05 | 100 | 1009.7 |
| 20260508032658 | 51 | 196 | 0.0 | 2.0 | 0.00 | 0.05 | 0.05 | 100 | 1009.7 |
| 20260508032205 | 51 | 196 | 0.0 | 2.0 | 0.00 | 0.05 | 0.05 | 100 | 1009.7 |
| 20260508031934 | 50 | 196 | 0.0 | 0.0 | 0.00 | 0.05 | 0.05 | 100 | 1009.7 |
| 20260508031710 | 50 | 196 | 0.0 | 0.0 | 0.00 | 0.05 | 0.05 | 100 | 1009.7 |
| 20260508030943 | 50 | 196 | 0.0 | 0.0 | 0.00 | 0.05 | 0.05 | 100 | 1009.7 |
| 20260508030403 | 50 | 196 | 0.0 | 0.0 | 0.00 | 0.05 | 0.05 | 100 | 1009.8 |
| 20260508025838 | 50 | 196 | 0.0 | 0.0 | 0.00 | 0.05 | 0.05 | 100 | 1009.7 |
| 20260508025243 | 50 | 196 | 0.0 | 0.0 | 0.00 | 0.05 | 0.05 | 100 | 1009.8 |
| 20260508024737 | 50 | 196 | 0.0 | 0.0 | 0.00 | 0.05 | 0.05 | 100 | 1009.8 |
| 20260508024336 | 50 | 196 | 0.0 | 0.0 | 0.00 | 0.05 | 0.05 | 100 | 1009.8 |
| 20260508023546 | 50 | 196 | 0.0 | 0.0 | 0.00 | 0.05 | 0.05 | 100 | 1009.8 |
| 20260508023028 | 50 | 196 | 0.0 | 0.0 | 0.00 | 0.05 | 0.05 | 100 | 1009.7 |
| 20260508022458 | 50 | 196 | 0.0 | 0.0 | 0.00 | 0.05 | 0.05 | 100 | 1009.7 |
| 20260508021908 | 50 | 196 | 0.0 | 0.0 | 0.00 | 0.05 | 0.05 | 100 | 1009.7 |
| 20260508021344 | 50 | 196 | 0.0 | 0.0 | 0.00 | 0.05 | 0.05 | 100 | 1009.8 |
| 20260508020843 | 50 | 196 | 0.0 | 0.0 | 0.00 | 0.05 | 0.05 | 100 | 1009.7 |
| 20260508020252 | 50 | 196 | 0.0 | 0.0 | 0.00 | 0.05 | 0.05 | 100 | 1009.7 |
| 20260508015944 | 50 | 196 | 0.0 | 0.0 | 0.00 | 0.05 | 0.05 | 100 | 1009.6 |
| 20260508015740 | 50 | 196 | 0.0 | 0.0 | 0.00 | 0.05 | 0.05 | 100 | 1009.6 |
| 20260508015129 | 51 | 196 | 0.0 | 0.0 | 0.00 | 0.05 | 0.05 | 100 | 1009.6 |
| 20260508014646 | 51 | 196 | 0.0 | 0.0 | 0.00 | 0.05 | 0.05 | 100 | 1009.5 |
| 20260508014248 | 51 | 196 | 0.0 | 0.0 | 0.00 | 0.05 | 0.05 | 100 | 1009.5 |
| 20260508013436 | 51 | 196 | 0.0 | 0.0 | 0.00 | 0.05 | 0.05 | 100 | 1009.4 |
| 20260508012916 | 51 | 196 | 0.0 | 0.0 | 0.00 | 0.05 | 0.05 | 100 | 1009.4 |
| 20260508012319 | 51 | 196 | 0.0 | 0.0 | 0.00 | 0.05 | 0.05 | 100 | 1009.4 |
| 20260508011749 | 51 | 196 | 0.0 | 0.0 | 0.00 | 0.05 | 0.05 | 100 | 1009.3 |
| 20260508011450 | 51 | 196 | 0.0 | 1.0 | 0.00 | 0.05 | 0.05 | 100 | 1009.2 |
| 20260508010624 | 51 | 196 | 0.0 | 1.0 | 0.00 | 0.05 | 0.05 | 100 | 1009.2 |
| 20260508010103 | 52 | 195 | 0.0 | 0.0 | 0.00 | 0.05 | 0.05 | 100 | 1009.2 |
| 20260508005520 | 52 | 195 | 0.0 | 0.0 | 0.00 | 0.05 | 0.05 | 100 | 1009.1 |
| 20260508004958 | 52 | 195 | 0.0 | 0.0 | 0.00 | 0.05 | 0.05 | 100 | 1009.0 |
| 20260508004419 | 53 | 195 | 0.0 | 0.0 | 0.00 | 0.05 | 0.05 | 100 | 1008.8 |
| 20260508003842 | 53 | 195 | 0.0 | 0.0 | 0.00 | 0.05 | 0.05 | 100 | 1008.7 |
| 20260508003355 | 53 | 195 | 0.0 | 0.0 | 0.00 | 0.05 | 0.05 | 100 | 1008.8 |
| 20260508002729 | 53 | 195 | 0.0 | 0.0 | 0.00 | 0.05 | 0.05 | 100 | 1008.7 |
| 20260508002152 | 53 | 195 | 0.0 | 0.0 | 0.00 | 0.05 | 0.05 | 100 | 1008.7 |
| 20260508001620 | 53 | 195 | 0.0 | 0.0 | 0.00 | 0.05 | 0.05 | 100 | 1008.7 |
| 20260508001104 | 54 | 195 | 0.0 | 0.0 | 0.00 | 0.05 | 0.05 | 100 | 1008.6 |
| 20260508000449 | 54 | 195 | 0.0 | 0.0 | 0.00 | 0.05 | 0.05 | 100 | 1008.4 |
| 20260507235927 | 54 | 195 | 0.0 | 0.0 | 0.00 | 0.05 | 0.05 | 100 | 1008.3 |
| 20260507235353 | 54 | 195 | 0.0 | 0.0 | 0.00 | 0.05 | 0.05 | 100 | 1008.3 |
| 20260507235331 | 54 | 195 | 0.0 | 0.0 | 0.00 | 0.05 | 0.05 | 100 | 1008.2 |
| 20260507234250 | 54 | 195 | 0.0 | 0.0 | 0.00 | 0.05 | 0.05 | 100 | 1008.1 |
| 20260507233718 | 54 | 195 | 0.0 | 0.0 | 0.00 | 0.05 | 0.05 | 1 | 1008.2 |
| 20260507233236 | 54 | 195 | 0.0 | 0.0 | 0.00 | 0.05 | 0.05 | 3 | 1008.1 |
| 20260507232603 | 54 | 195 | 0.0 | 0.0 | 0.00 | 0.05 | 0.05 | 7 | 1007.9 |
| 20260507232334 | 54 | 195 | 0.0 | 0.0 | 0.00 | 0.05 | 0.05 | 9 | 1008.0 |
| 20260507232251 | 54 | 195 | 0.0 | 0.0 | 0.00 | 0.05 | 0.05 | 10 | 1007.9 |
| 20260507231713 | 54 | 195 | 0.0 | 0.0 | 0.00 | 0.05 | 0.05 | 10 | 1007.9 |
| 20260507231456 | 54 | 195 | 0.0 | 0.0 | 0.00 | 0.05 | 0.05 | 10 | 1007.9 |
| 20260507230911 | 54 | 195 | 0.0 | 0.0 | 0.00 | 0.05 | 0.05 | 12 | 1008.0 |
| 20260507230340 | 54 | 195 | 0.0 | 2.0 | 0.00 | 0.05 | 0.05 | 13 | 1007.9 |
| 20260507225833 | 54 | 195 | 0.0 | 2.0 | 0.00 | 0.05 | 0.05 | 14 | 1008.0 |
| 20260507225326 | 54 | 195 | 0.0 | 2.0 | 0.00 | 0.05 | 0.05 | 14 | 1007.9 |
| 20260507224854 | 55 | 196 | 0.0 | 2.0 | 0.00 | 0.05 | 0.05 | 12 | 1007.9 |
| 20260507224615 | 54 | 195 | 0.0 | 2.0 | 0.00 | 0.05 | 0.05 | 13 | 1007.9 |
| 20260507224144 | 54 | 196 | 0.0 | 2.0 | 0.00 | 0.05 | 0.05 | 13 | 1007.9 |
| 20260507224005 | 55 | 196 | 0.0 | 2.0 | 0.00 | 0.05 | 0.05 | 12 | 1007.9 |
| 20260507222901 | 55 | 120 | 0.0 | 1.0 | 0.00 | 0.05 | 0.05 | 12 | 1007.9 |
| 20260507222329 | 55 | 120 | 0.0 | 1.0 | 0.00 | 0.05 | 0.05 | 11 | 1007.8 |
| 20260507221741 | 55 | 111 | 0.0 | 1.0 | 0.00 | 0.05 | 0.05 | 7 | 1007.8 |
| 20260507221250 | 55 | 111 | 0.0 | 1.0 | 0.00 | 0.05 | 0.05 | 8 | 1007.9 |
| 20260507220558 | 55 | 111 | 0.0 | 2.0 | 0.00 | 0.05 | 0.05 | 10 | 1008.0 |
| 20260507220401 | 54 | 110 | 0.0 | 1.0 | 0.00 | 0.05 | 0.05 | 12 | 1008.2 |
| 20260507215458 | 55 | 110 | 0.0 | 2.0 | 0.00 | 0.05 | 0.05 | 11 | 1008.3 |
| 20260507215339 | 55 | 34 | 0.0 | 2.0 | 0.00 | 0.05 | 0.05 | 7 | 1008.3 |
| 20260507214414 | 55 | 34 | 0.0 | 2.0 | 0.01 | 0.05 | 0.05 | 100 | 1008.0 |
| 20260507214054 | 56 | 34 | 0.0 | 0.0 | 0.01 | 0.05 | 0.05 | 100 | 1008.3 |
| 20260507213242 | 56 | 34 | 0.0 | 0.0 | 0.01 | 0.05 | 0.05 | 100 | 1008.3 |
| 20260507212708 | 56 | 43 | 0.0 | 0.0 | 0.01 | 0.05 | 0.05 | 100 | 1008.1 |
| 20260507212139 | 56 | 43 | 0.0 | 0.0 | 0.01 | 0.05 | 0.05 | 100 | 1008.4 |
| 20260507211603 | 55 | 43 | 0.0 | 0.0 | 0.01 | 0.05 | 0.05 | 100 | 1008.4 |
| 20260507211027 | 55 | 43 | 0.0 | 0.0 | 0.01 | 0.05 | 0.05 | 100 | 1008.2 |
| 20260507210737 | 55 | 43 | 0.0 | 0.0 | 0.01 | 0.05 | 0.05 | 100 | 1007.7 |
| 20260507210658 | 55 | 43 | 0.0 | 0.0 | 0.01 | 0.05 | 0.05 | 100 | 1008.1 |
| 20260507210222 | 55 | 43 | 0.0 | 0.0 | 0.01 | 0.05 | 0.05 | 100 | 1007.7 |
| 20260507205507 | 55 | 43 | 0.0 | 0.0 | 0.00 | 0.04 | 0.04 | 100 | 1007.8 |
| 20260507205302 | 55 | 43 | 0.0 | 0.0 | 0.01 | 0.05 | 0.05 | 100 | 1007.9 |
| 20260507205249 | 55 | 43 | 0.0 | 0.0 | 0.00 | 0.04 | 0.04 | 100 | 1007.8 |
| 20260507204239 | 55 | 43 | 0.0 | 0.0 | 0.00 | 0.04 | 0.04 | 1 | 1008.2 |
| 20260507203640 | 55 | 43 | 0.0 | 0.0 | 0.00 | 0.04 | 0.04 | 4 | 1008.8 |
| 20260507203019 | 54 | 43 | 0.0 | 0.0 | 0.01 | 0.04 | 0.04 | 7 | 1008.7 |
| 20260507202730 | 55 | 43 | 0.0 | 0.0 | 0.01 | 0.04 | 0.04 | 2 | 1008.0 |
| 20260507202703 | 55 | 43 | 0.0 | 0.0 | 0.01 | 0.04 | 0.04 | 100 | 1007.9 |
| 20260507202627 | 54 | 43 | 0.0 | 0.0 | 0.01 | 0.04 | 0.04 | 8 | 1008.4 |
| 20260507200644 | 55 | 43 | 0.0 | 0.0 | 0.02 | 0.04 | 0.04 | 3 | 1008.0 |
| 20260507200204 | 55 | 43 | 0.0 | 0.0 | 0.02 | 0.04 | 0.04 | 5 | 1008.3 |
| 20260507195709 | 55 | 43 | 0.0 | 0.0 | 0.02 | 0.04 | 0.04 | 10 | 1008.3 |
| 20260507195050 | 55 | 43 | 0.0 | 0.0 | 0.02 | 0.04 | 0.04 | 17 | 1008.3 |
| 20260507194424 | 55 | 337 | 0.0 | 0.0 | 0.02 | 0.04 | 0.04 | 29 | 1008.4 |
| 20260507194355 | 55 | 43 | 0.0 | 0.0 | 0.02 | 0.04 | 0.04 | 22 | 1008.2 |
| 20260507193229 | 55 | 337 | 0.0 | 0.0 | 0.02 | 0.04 | 0.04 | 36 | 1008.7 |
| 20260507192654 | 56 | 337 | 0.0 | 0.0 | 0.01 | 0.03 | 0.03 | 42 | 1008.8 |
| 20260507192043 | 56 | 337 | 0.0 | 0.0 | 0.01 | 0.03 | 0.03 | 47 | 1008.8 |
| 20260507191506 | 56 | 337 | 0.0 | 0.0 | 0.01 | 0.03 | 0.03 | 52 | 1008.4 |
| 20260507190920 | 56 | 337 | 0.0 | 0.0 | 0.00 | 0.02 | 0.02 | 53 | 1008.5 |
| 20260507190328 | 56 | 337 | 0.0 | 0.0 | 0.00 | 0.02 | 0.02 | 53 | 1008.3 |
| 20260507190155 | 56 | 337 | 0.0 | 0.0 | 0.00 | 0.02 | 0.02 | 50 | 1008.7 |
| 20260507185841 | 56 | 337 | 0.0 | 0.0 | 0.00 | 0.02 | 0.02 | 51 | 1008.9 |
| 20260507185506 | 56 | 337 | 0.0 | 0.0 | 0.00 | 0.02 | 0.02 | 50 | 1008.7 |
| 20260507184643 | 56 | 337 | 0.0 | 0.0 | 0.00 | 0.02 | 0.02 | 50 | 1008.7 |
| 20260507184420 | 56 | 337 | 0.0 | 2.0 | 0.00 | 0.02 | 0.02 | 50 | 1008.7 |
| 20260507183804 | 56 | 337 | 0.0 | 2.0 | 0.00 | 0.02 | 0.02 | 51 | 1008.7 |
| 20260507183015 | 57 | 337 | 0.0 | 0.0 | 0.00 | 0.02 | 0.02 | 52 | 1008.8 |
| 20260507182754 | 56 | 337 | 0.0 | 0.0 | 0.00 | 0.02 | 0.02 | 52 | 1009.1 |
| 20260507181902 | 56 | 337 | 0.0 | 0.0 | 0.00 | 0.02 | 0.02 | 52 | 1009.0 |
| 20260507181344 | 56 | 337 | 0.0 | 0.0 | 0.00 | 0.02 | 0.02 | 51 | 1009.3 |
| 20260507180745 | 56 | 337 | 0.0 | 1.0 | 0.00 | 0.02 | 0.02 | 51 | 1009.2 |
| 20260507180217 | 56 | 337 | 0.0 | 1.0 | 0.00 | 0.02 | 0.02 | 51 | 1008.9 |
| 20260507175634 | 56 | 337 | 0.0 | 0.0 | 0.00 | 0.02 | 0.02 | 52 | 1009.1 |
| 20260507175548 | 56 | 337 | 0.0 | 4.0 | 0.00 | 0.02 | 0.02 | 52 | 1009.3 |
| 20260507174523 | 56 | 337 | 0.0 | 1.0 | 0.00 | 0.02 | 0.02 | 53 | 1009.4 |
| 20260507173931 | 56 | 337 | 0.0 | 0.0 | 0.00 | 0.02 | 0.02 | 54 | 1009.7 |
| 20260507173916 | 56 | 337 | 0.0 | 3.0 | 0.00 | 0.02 | 0.02 | 53 | 1009.6 |
| 20260507172732 | 57 | 337 | 0.0 | 3.0 | 0.00 | 0.02 | 0.02 | 52 | 1009.7 |
| 20260507172152 | 57 | 238 | 0.0 | 4.0 | 0.00 | 0.02 | 0.02 | 50 | 1009.6 |
| 20260507172140 | 57 | 238 | 0.0 | 2.0 | 0.00 | 0.02 | 0.02 | 51 | 1009.6 |
| 20260507171023 | 57 | 238 | 0.0 | 4.0 | 0.00 | 0.02 | 0.02 | 50 | 1009.5 |
| 20260507170714 | 57 | 36 | 0.0 | 4.0 | 0.00 | 0.02 | 0.02 | 49 | 1009.8 |
| 20260507170158 | 57 | 36 | 0.0 | 4.0 | 0.00 | 0.02 | 0.02 | 49 | 1009.7 |
| 20260507165352 | 58 | 49 | 0.0 | 5.0 | 0.00 | 0.02 | 0.02 | 49 | 1009.6 |
| 20260507164808 | 58 | 68 | 0.0 | 5.0 | 0.00 | 0.02 | 0.02 | 49 | 1009.8 |
| 20260507164238 | 57 | 338 | 0.0 | 5.0 | 0.00 | 0.02 | 0.02 | 49 | 1009.8 |
| 20260507163651 | 58 | 310 | 0.0 | 5.0 | 0.00 | 0.02 | 0.02 | 48 | 1009.9 |
| 20260507163110 | 58 | 273 | 0.0 | 4.0 | 0.00 | 0.02 | 0.02 | 48 | 1010.2 |
| 20260507162534 | 58 | 293 | 0.0 | 0.0 | 0.00 | 0.02 | 0.02 | 49 | 1009.9 |
| 20260507161945 | 58 | 292 | 0.0 | 6.0 | 0.00 | 0.03 | 0.02 | 48 | 1010.0 |
| 20260507161657 | 58 | 123 | 1.0 | 7.0 | 0.00 | 0.03 | 0.02 | 48 | 1010.3 |
| 20260507160834 | 58 | 335 | 1.0 | 7.0 | 0.00 | 0.04 | 0.02 | 48 | 1010.3 |
| 20260507160318 | 58 | 260 | 0.0 | 6.0 | 0.00 | 0.04 | 0.02 | 47 | 1010.2 |
| 20260507155953 | 57 | 123 | 0.0 | 6.0 | 0.00 | 0.04 | 0.02 | 48 | 1010.4 |
| 20260507155204 | 57 | 306 | 0.0 | 5.0 | 0.00 | 0.06 | 0.02 | 48 | 1010.2 |
| 20260507154628 | 57 | 49 | 0.0 | 5.0 | 0.00 | 0.07 | 0.02 | 47 | 1010.4 |
| 20260507154048 | 57 | 78 | 0.0 | 6.0 | 0.00 | 0.07 | 0.02 | 47 | 1010.6 |
| 20260507153525 | 57 | 292 | 0.0 | 6.0 | 0.00 | 0.08 | 0.02 | 47 | 1010.6 |
| 20260507153252 | 57 | 181 | 0.0 | 8.0 | 0.00 | 0.08 | 0.02 | 47 | 1010.4 |
| 20260507152433 | 57 | 101 | 1.0 | 8.0 | 0.00 | 0.08 | 0.02 | 47 | 1010.5 |
| 20260507151829 | 57 | 5 | 1.0 | 10.0 | 0.00 | 0.08 | 0.02 | 47 | 1010.4 |
| 20260507151520 | 57 | 206 | 1.0 | 10.0 | 0.00 | 0.08 | 0.02 | 47 | 1010.4 |
| 20260507150701 | 57 | 351 | 0.0 | 7.0 | 0.00 | 0.08 | 0.02 | 47 | 1010.6 |
| 20260507150120 | 57 | 348 | 1.0 | 6.0 | 0.00 | 0.08 | 0.02 | 47 | 1010.8 |
| 20260507145551 | 57 | 355 | 0.0 | 6.0 | 0.00 | 0.08 | 0.02 | 47 | 1010.7 |
| 20260507145019 | 58 | 355 | 0.0 | 5.0 | 0.00 | 0.09 | 0.02 | 46 | 1010.7 |
| 20260507144715 | 58 | 168 | 1.0 | 9.0 | 0.00 | 0.09 | 0.02 | 45 | 1010.7 |
| 20260507143924 | 58 | 129 | 1.0 | 9.0 | 0.00 | 0.09 | 0.02 | 46 | 1010.6 |
| 20260507143402 | 58 | 346 | 0.0 | 6.0 | 0.00 | 0.10 | 0.02 | 45 | 1010.6 |
| 20260507142919 | 58 | 18 | 0.0 | 6.0 | 0.00 | 0.10 | 0.02 | 44 | 1010.7 |
| 20260507142320 | 58 | 290 | 1.0 | 6.0 | 0.00 | 0.10 | 0.02 | 44 | 1010.7 |
| 20260507141724 | 58 | 136 | 1.0 | 8.0 | 0.00 | 0.10 | 0.02 | 43 | 1010.6 |
| 20260507141153 | 58 | 5 | 0.0 | 8.0 | 0.00 | 0.10 | 0.02 | 41 | 1010.7 |
| 20260507140614 | 58 | 281 | 0.0 | 6.0 | 0.00 | 0.10 | 0.02 | 38 | 1010.7 |
| 20260507140016 | 58 | 157 | 1.0 | 9.0 | 0.00 | 0.10 | 0.02 | 32 | 1010.5 |
| 20260507135433 | 58 | 306 | 1.0 | 9.0 | 0.00 | 0.10 | 0.02 | 25 | 1010.5 |
| 20260507134901 | 58 | 113 | 0.0 | 6.0 | 0.00 | 0.10 | 0.02 | 20 | 1010.4 |
| 20260507134326 | 58 | 192 | 0.0 | 4.0 | 0.00 | 0.10 | 0.02 | 20 | 1010.6 |
| 20260507133741 | 57 | 84 | 1.0 | 8.0 | 0.00 | 0.10 | 0.02 | 19 | 1010.7 |
| 20260507133244 | 57 | 19 | 0.0 | 8.0 | 0.00 | 0.10 | 0.02 | 17 | 1010.8 |
| 20260507132629 | 57 | 127 | 0.0 | 5.0 | 0.00 | 0.10 | 0.02 | 15 | 1010.5 |
| 20260507132050 | 57 | 105 | 0.0 | 5.0 | 0.00 | 0.10 | 0.02 | 15 | 1010.4 |
| 20260507131800 | 57 | 127 | 0.0 | 6.0 | 0.00 | 0.10 | 0.02 | 14 | 1010.6 |
| 20260507131544 | 57 | 127 | 0.0 | 6.0 | 0.00 | 0.10 | 0.02 | 14 | 1010.6 |
| 20260507130934 | 57 | 205 | 0.0 | 6.0 | 0.00 | 0.10 | 0.02 | 13 | 1010.7 |
| 20260507130522 | 57 | 330 | 1.0 | 6.0 | 0.00 | 0.10 | 0.02 | 13 | 1010.6 |
| 20260507125859 | 57 | 272 | 1.0 | 6.0 | 0.00 | 0.10 | 0.02 | 12 | 1010.5 |
| 20260507125421 | 57 | 173 | 1.0 | 5.0 | 0.00 | 0.10 | 0.02 | 12 | 1010.5 |
| 20260507125056 | 56 | 26 | 1.0 | 6.0 | 0.00 | 0.10 | 0.02 | 11 | 1010.4 |
| 20260507124350 | 56 | 118 | 0.0 | 4.0 | 0.00 | 0.10 | 0.02 | 7 | 1010.2 |
| 20260507124216 | 56 | 165 | 1.0 | 6.0 | 0.00 | 0.10 | 0.02 | 9 | 1010.2 |
| 20260507123027 | 56 | 200 | 0.0 | 4.0 | 0.00 | 0.10 | 0.02 | 5 | 1010.5 |
| 20260507122450 | 56 | 347 | 0.0 | 4.0 | 0.00 | 0.10 | 0.02 | 3 | 1010.3 |
| 20260507121903 | 56 | 159 | 0.0 | 1.0 | 0.00 | 0.10 | 0.02 | 100 | 1010.5 |
| 20260507121329 | 56 | 121 | 0.0 | 4.0 | 0.00 | 0.10 | 0.02 | 100 | 1010.5 |
| 20260507121235 | 56 | 223 | 0.0 | 5.0 | 0.00 | 0.10 | 0.02 | 100 | 1010.6 |
| 20260507120213 | 56 | 138 | 0.0 | 5.0 | 0.00 | 0.10 | 0.02 | 100 | 1010.5 |
| 20260507115641 | 56 | 252 | 0.0 | 0.0 | 0.00 | 0.10 | 0.02 | 100 | 1010.4 |
| 20260507115050 | 56 | 156 | 0.0 | 5.0 | 0.00 | 0.10 | 0.02 | 100 | 1010.3 |
| 20260507114523 | 56 | 48 | 0.0 | 4.0 | 0.00 | 0.10 | 0.02 | 100 | 1010.2 |
| 20260507113945 | 57 | 183 | 1.0 | 7.0 | 0.00 | 0.10 | 0.02 | 100 | 1010.5 |
| 20260507113636 | 56 | 51 | 1.0 | 7.0 | 0.00 | 0.10 | 0.02 | 100 | 1010.5 |
| 20260507112834 | 57 | 63 | 1.0 | 9.0 | 0.00 | 0.10 | 0.02 | 100 | 1010.5 |
| 20260507112259 | 57 | 107 | 0.0 | 6.0 | 0.00 | 0.10 | 0.02 | 100 | 1010.4 |
| 20260507111716 | 57 | 134 | 0.0 | 6.0 | 0.00 | 0.10 | 0.02 | 100 | 1010.3 |
| 20260507111400 | 57 | 230 | 0.0 | 5.0 | 0.00 | 0.10 | 0.02 | 100 | 1010.4 |
| 20260507110559 | 57 | 166 | 0.0 | 5.0 | 0.00 | 0.10 | 0.02 | 100 | 1010.3 |
| 20260507110054 | 57 | 153 | 0.0 | 5.0 | 0.00 | 0.10 | 0.02 | 100 | 1010.2 |
| 20260507105453 | 57 | 113 | 1.0 | 9.0 | 0.00 | 0.10 | 0.02 | 100 | 1010.1 |
| 20260507104915 | 57 | 178 | 1.0 | 9.0 | 0.00 | 0.10 | 0.02 | 100 | 1009.5 |
| 20260507104334 | 57 | 92 | 1.0 | 8.0 | 0.00 | 0.10 | 0.02 | 100 | 1009.4 |
| 20260507103814 | 57 | 172 | 0.0 | 4.0 | 0.00 | 0.10 | 0.02 | 100 | 1009.5 |
| 20260507103519 | 57 | 255 | 0.0 | 7.0 | 0.00 | 0.10 | 0.02 | 100 | 1009.8 |
| 20260507103243 | 57 | 255 | 0.0 | 7.0 | 0.00 | 0.10 | 0.02 | 100 | 1009.8 |
| 20260507102656 | 58 | 344 | 0.0 | 7.0 | 0.00 | 0.10 | 0.02 | 100 | 1009.8 |
| 20260507102126 | 58 | 96 | 1.0 | 8.0 | 0.00 | 0.10 | 0.02 | 100 | 1009.8 |
| 20260507101624 | 58 | 333 | 1.0 | 2.0 | 0.00 | 0.10 | 0.02 | 100 | 1009.7 |
| 20260507100943 | 58 | 342 | 1.0 | 9.0 | 0.00 | 0.10 | 0.02 | 100 | 1009.7 |
| 20260507100350 | 58 | 322 | 1.0 | 10.0 | 0.00 | 0.10 | 0.02 | 100 | 1009.4 |
| 20260507095824 | 59 | 355 | 1.0 | 10.0 | 0.00 | 0.10 | 0.02 | 100 | 1009.3 |
| 20260507095332 | 59 | 78 | 1.0 | 9.0 | 0.00 | 0.10 | 0.02 | 100 | 1009.2 |
| 20260507094735 | 60 | 299 | 1.0 | 12.0 | 0.00 | 0.10 | 0.02 | 100 | 1009.5 |
| 20260507094221 | 60 | 355 | 1.0 | 12.0 | 0.00 | 0.10 | 0.02 | 100 | 1009.3 |
| 20260507093644 | 60 | 269 | 1.0 | 9.0 | 0.00 | 0.10 | 0.02 | 100 | 1009.1 |
| 20260507093120 | 60 | 318 | 1.0 | 9.0 | 0.00 | 0.10 | 0.02 | 100 | 1008.8 |
| 20260507092544 | 61 | 292 | 1.0 | 9.0 | 0.00 | 0.10 | 0.02 | 100 | 1009.3 |
| 20260507092027 | 60 | 124 | 1.0 | 7.0 | 0.00 | 0.10 | 0.02 | 100 | 1009.6 |
| 20260507091923 | 60 | 335 | 1.0 | 10.0 | 0.00 | 0.10 | 0.02 | 100 | 1009.4 |
| 20260507090828 | 60 | 58 | 1.0 | 10.0 | 0.00 | 0.10 | 0.02 | 100 | 1009.2 |
| 20260507090528 | 60 | 155 | 0.0 | 4.0 | 0.00 | 0.10 | 0.02 | 100 | 1009.1 |
| 20260507085727 | 60 | 17 | 1.0 | 10.0 | 0.00 | 0.10 | 0.02 | 100 | 1009.1 |
| 20260507085134 | 60 | 327 | 1.0 | 9.0 | 0.00 | 0.10 | 0.02 | 100 | 1008.9 |
| 20260507084549 | 61 | 273 | 1.0 | 7.0 | 0.00 | 0.10 | 0.02 | 100 | 1008.9 |
| 20260507084005 | 61 | 275 | 1.0 | 9.0 | 0.00 | 0.10 | 0.02 | 100 | 1008.8 |
| 20260507083435 | 62 | 237 | 1.0 | 9.0 | 0.00 | 0.10 | 0.02 | 100 | 1008.8 |
| 20260507082906 | 62 | 264 | 1.0 | 7.0 | 0.00 | 0.10 | 0.02 | 100 | 1008.6 |
| 20260507082324 | 62 | 126 | 0.0 | 5.0 | 0.00 | 0.10 | 0.02 | 100 | 1008.6 |
| 20260507081918 | 62 | 322 | 0.0 | 7.0 | 0.00 | 0.10 | 0.02 | 100 | 1008.8 |
| 20260507081422 | 62 | 323 | 0.0 | 4.0 | 0.00 | 0.10 | 0.02 | 100 | 1009.0 |
| 20260507080459 | 62 | 311 | 0.0 | 6.0 | 0.00 | 0.10 | 0.02 | 100 | 1008.7 |
| 20260507075929 | 63 | 355 | 0.0 | 2.0 | 0.00 | 0.10 | 0.02 | 100 | 1008.8 |